Location: *
(44.7594°N, 16.6802°E)
Time: 00:22:43
(UTC+00:00)

Daily predictions for brighter satellites

Satellite Brightness Start Highest point End
(mag) Time Altitude Azimuth Time Altitude Azimuth Time Altitude Azimuth
ATLAS 2AS CENTAUR R/B 4.2 01:45:47 32° ENE 01:45:47 32° ENE 01:50:21 10° ESE
SL-16 R/B 4.4 02:05:35 20° ESE 02:05:35 20° ESE 02:07:35 10° ESE
Cosmos 2322 Rocket 4.2 02:10:12 24° E 02:10:12 24° E 02:12:59 10° ESE
NOSS 3-4 (A) 4.1 02:53:58 54° N 02:55:20 64° NE 03:02:57 10° SE
NOSS 3-4 (C) 4.1 02:54:02 54° N 02:55:26 64° NE 03:03:02 10° SE
Lacrosse 5 rocket 3.7 03:09:33 17° ENE 03:09:33 17° ENE 03:10:52 10° ENE
Centaur D AC-28 4.3 03:11:18 19° S 03:13:11 21° SSE 03:22:53 10° ESE
Cosmos 2082 Rocket 4.3 03:17:02 14° N 03:17:02 14° N 03:18:06 10° N
MSX 4.1 03:12:20 10° N 03:16:54 57° N 03:16:54 57° N
COSMOS 2455 3.3 03:21:31 48° SSW 03:21:31 48° SSW 03:26:00 10° SSE
COBE Rocket 4.5 03:17:06 10° SSE 03:22:06 57° ENE 03:25:27 20° N
Cosmos 2100 Rocket 3.8 03:22:13 10° S 03:28:23 85° W 03:34:35 10° N
SL-4 R/B 2.8 03:31:22 53° S 03:31:22 53° S 03:35:21 10° SE
ATLAS CENTAUR R/B 2.2 03:32:02 50° N 03:32:02 50° N 03:35:40 10° NNE
COSMO-SKYMED 1 3.8 03:30:42 10° SE 03:34:45 40° ENE 03:38:36 11° N
ATLAS 2AS CENTAUR R/B 2.8 03:33:16 49° WNW 03:35:10 65° WSW 03:42:02 10° SSE
Cosmos 2237 4.5 03:32:57 30° NNW 03:35:52 67° ENE 03:41:31 10° SE
STARLINK-39 4.5 03:37:38 42° NNE 03:37:38 42° NNE 03:40:38 10° NE
STARLINK 4.4 03:39:15 42° NNE 03:39:15 42° NNE 03:42:19 10° NE
Cosmos 2360 Rocket 2.3 03:35:55 31° NNW 03:38:42 73° ENE 03:44:21 10° SSE
STARLINK-42 4.4 03:40:16 42° NNE 03:40:16 42° NNE 03:43:21 10° NE
Cosmos 2298 Rocket 3.9 03:38:44 54° SW 03:39:56 78° WNW 03:45:16 10° NNE
STARLINK-21 4.3 03:42:26 44° NNE 03:42:26 44° NNE 03:45:38 10° NE
CZ-3B R/B 4.1 03:39:56 14° SW 03:42:43 16° S 03:46:17 10° SSE
STARLINK-45 4.4 03:44:20 41° NNE 03:44:20 41° NNE 03:47:32 10° NE
Lacrosse 5 3.5 03:45:45 21° N 03:45:49 21° N 03:49:42 10° NE
STARLINK-76 4.2 03:47:15 45° N 03:47:15 45° N 03:50:38 10° NE
Gbstr 26 Del rocket 4.1 03:47:29 27° NNE 03:47:29 27° NNE 03:50:06 10° NE
SL-16 R/B 2.6 03:47:31 42° SW 03:47:31 42° SW 03:52:06 10° S
COSMOS 2428 4.2 03:41:53 10° N 03:47:00 32° NE 03:52:07 10° ESE
Cosmos 1400 Rocket 4.3 03:43:20 10° N 03:47:06 36° ENE 03:50:47 10° SE
Cosmos 1833 4.5 03:42:32 10° SSW 03:48:06 68° ESE 03:53:42 10° NNE
STARLINK 4.2 03:48:51 45° N 03:48:51 45° N 03:52:17 10° NE
Abrixas rocket 3.8 03:49:45 28° NE 03:49:45 28° NE 03:51:25 10° ENE
STARLINK-32 4.2 03:50:25 45° N 03:50:25 45° N 03:53:56 10° NE
Cosmos 468 4.4 03:47:36 33° NNW 03:50:03 87° WSW 03:55:19 10° SSE
Cosmos 1802 Rocket 3.9 03:44:39 10° SSW 03:51:04 76° W 03:57:30 10° N
STARLINK-40 4.2 03:52:03 45° N 03:52:03 45° N 03:55:37 10° NE
Cosmos 2322 Rocket 2.4 03:52:05 46° WSW 03:52:14 46° WSW 03:57:37 10° S
STARLINK-44 4.1 03:53:38 45° N 03:53:38 45° N 03:57:15 10° NE
Cosmos 2173 Rocket 3.9 03:48:11 10° SSW 03:54:19 59° WNW 04:00:25 10° N
CZ-4B R/B 4.0 03:49:52 10° N 03:54:20 66° WNW 03:56:04 36° SW
STARLINK-36 4.1 03:55:15 44° N 03:55:15 44° N 03:58:57 10° NE
USA 234 4.3 03:49:36 10° NE 03:55:08 31° N 03:57:32 24° NW
Cosmos 1151 Rocket 2.9 03:54:51 60° NW 03:55:27 69° W 03:59:45 10° S
STARLINK-26 4.3 03:57:51 39° N 03:57:51 39° N 04:01:28 10° NE
STARLINK-35 4.1 04:01:36 42° NNW 04:01:36 42° NNW 04:05:32 10° NE
Cosmos 2346 Rocket 4.3 03:55:53 10° N 04:02:00 88° W 04:08:02 10° S
STARLINK-51 4.1 04:03:13 41° NNW 04:03:16 41° NNW 04:07:13 10° NE
Cosmos 494 Rocket 4.4 03:58:43 11° NNW 04:03:43 61° ENE 04:08:52 10° SSE
STARLINK-30 4.1 04:04:49 41° NNW 04:04:57 41° NNW 04:08:54 10° NE
STARLINK-33 4.2 04:06:25 40° NNW 04:06:38 40° NNW 04:10:34 10° NE
FENGYUN 3A 4.5 04:01:21 10° NNE 04:06:39 52° E 04:11:54 10° S
CZ-2C R/B 2.8 04:02:27 10° N 04:06:29 39° NW 04:06:29 39° NW
Cosmos 2233 Rocket 4.5 04:01:08 10° S 04:07:19 64° E 04:13:34 10° NNE
STARLINK-50 4.2 04:08:02 39° NNW 04:08:18 39° NNW 04:12:14 10° NE
Helios 1A Rocket 4.2 04:05:52 10° NNE 04:09:46 41° E 04:13:36 10° S
STARLINK-56 4.2 04:11:13 37° NW 04:11:38 38° NNW 04:15:32 10° NE
Cosmos 1328 Rocket 3.8 04:12:42 41° W 04:12:42 41° W 04:16:42 10° SSW
PSLV R/B 3.7 04:08:53 10° N 04:12:49 74° WNW 04:16:49 10° SSW
Starlink (trailer) 4.3 04:12:46 36° NW 04:13:16 38° NNW 04:17:10 10° NE
Cosmos 1864 Rocket 4.4 04:07:50 10° SSW 04:13:58 75° W 04:20:13 10° N
Cosmos 2061 Rocket 4.0 04:08:11 10° SSW 04:14:17 58° WNW 04:20:25 10° N
STARLINK-38 4.3 04:14:24 35° NW 04:14:59 37° NNW 04:18:52 10° NE
STARLINK-65 4.3 04:16:01 34° NW 04:16:40 37° NNW 04:20:32 10° NE
Cosmos 1269 Rocket 4.3 04:13:14 10° NNW 04:18:33 70° ENE 04:23:49 10° SSE
Cosmos 1515 Rocket 3.5 04:16:49 17° NNW 04:20:02 56° W 04:24:17 10° S
H-2A R/B 4.5 04:16:31 10° N 04:17:44 16° NNW 04:17:44 16° NNW
Okean O Rocket 2.3 04:16:44 10° NNE 04:21:03 57° E 04:25:19 10° S
Cosmos 2333 4.3 04:15:47 11° NNW 04:21:29 80° ENE 04:27:16 10° SSE
STARLINK-69 4.4 04:20:50 31° NW 04:21:42 35° NNW 04:25:32 10° NE
Cosmos 2228 Rocket 3.1 04:17:31 10° N 04:22:08 85° W 04:26:42 10° S
SKYMED 2 3.5 04:18:32 10° S 04:22:49 63° WSW 04:27:10 10° NNW
STARLINK-66 4.4 04:22:25 31° NW 04:23:22 35° NNW 04:27:12 10° NE
Cosmos 1606 2.6 04:21:21 15° NNW 04:24:24 66° W 04:28:11 10° S
Cosmos 1743 Rocket 3.4 04:20:37 10° SSW 04:24:54 68° W 04:29:14 10° N
STARLINK-41 4.5 04:23:58 30° NW 04:24:59 34° NNW 04:28:49 10° NE
STARLINK-64 4.5 04:25:35 29° NW 04:26:40 34° NNW 04:30:28 10° NE
Cosmos 1825 2.6 04:23:17 10° SW 04:26:47 36° WNW 04:30:19 10° N
Cosmos 2219 Rocket 2.7 04:21:12 10° NNW 04:26:49 61° ENE 04:32:26 10° SE
FALCON 9 DEB 4.4 04:25:37 23° NNW 04:26:56 31° NNE 04:30:03 10° E
Cosmos 1125 Rocket 3.5 04:22:37 10° SSW 04:27:50 62° WNW 04:33:04 10° NNE
Cosmos 2322 3.6 04:22:45 12° NNW 04:28:05 80° WSW 04:33:43 10° SSE
Meteor 2-3 Rocket 3.7 04:23:18 10° S 04:29:04 87° W 04:34:56 10° N
CZ-4B R/B 3.5 04:25:53 10° NNE 04:31:20 69° ESE 04:36:50 10° S
Cosmos 1408 Rocket 4.4 04:34:57 10° SW 04:38:34 26° WNW 04:42:14 10° NNW
Cosmos 2333 Rocket 2.4 04:33:54 10° NNW 04:39:43 79° ENE 04:45:29 10° SSE
RESURS DK-1 3.6 04:37:36 10° NNW 04:41:32 39° ENE 04:45:25 10° SE
Cosmos 1500 Rocket 3.8 04:42:44 10° SSW 04:46:59 44° WNW 04:51:16 10° N
Lacrosse 5 rocket 0.9 04:45:14 21° NW 04:47:33 76° SW 04:51:08 10° SE
SJ-12 4.3 04:44:50 10° N 04:48:46 43° WNW 04:52:41 10° SW
Cosmos 1933 4.1 04:45:57 13° NW 04:48:52 29° W 04:52:20 10° SSW
Cosmos 1725 Rocket 4.3 04:42:59 10° SW 04:48:53 42° WNW 04:54:53 10° N
STARLINK-46 3.6 04:47:53 23° W 04:49:10 36° SW 04:51:56 10° SSE
Sich 1 3.6 04:45:42 10° S 04:49:53 61° E 04:54:08 10° NNE
BREEZE-M DEB (TANK) 4.0 04:43:40 15° WNW 04:51:05 39° SW 04:54:30 10° SSE
NOAA 6 3.9 04:46:02 10° NNE 04:51:11 80° WNW 04:56:17 10° SSW
Cosmos 972 Rocket 4.2 04:46:24 10° SW 04:51:28 55° WNW 04:57:10 10° NNE
Cosmos 1315 Rocket 3.0 04:48:32 10° N 04:52:36 78° ENE 04:56:41 10° SSE
Cosmos 1484 Rocket 3.7 04:50:23 10° N 04:53:48 27° WNW 04:57:11 10° SW
ALOS 2.4 04:52:01 10° N 04:56:33 50° WNW 05:01:03 10° SW
Cosmos 1633 3.2 04:54:46 10° S 04:58:20 61° E 05:01:56 10° NNE
SMAP 4.1 04:55:07 10° NNE 04:59:40 50° E 05:04:11 10° S
H-2A R/B 3.7 04:59:44 10° NNE 05:03:22 50° E 05:06:58 10° S
Iridium 82 4.5 05:00:29 10° N 05:04:03 70° W 05:07:46 10° S
SL-16 R/B 4.2 04:59:46 10° N 05:04:11 22° NE 05:08:34 10° E
Cosmos 1666 Rocket 4.0 05:01:18 10° S 05:05:43 68° E 05:10:08 10° NNE
Cosmos 1782 3.0 05:04:47 10° NNW 05:08:39 50° W 05:12:28 10° S
Meteor 2-6 Rocket 4.2 05:04:07 10° N 05:09:35 90° W 05:15:09 10° S
SL-4 R/B 4.4 05:07:17 10° W 05:09:36 13° SW 05:11:53 10° SSW
ATLAS CENTAUR R/B 3.4 05:08:17 11° WNW 05:10:41 16° NNW 05:13:32 10° N
COSMO-SKYMED 1 3.9 05:07:52 10° SW 05:11:05 20° W 05:14:18 10° NW
Cosmos 1238 Rocket 4.3 05:09:21 10° SW 05:15:11 37° WNW 05:20:24 10° N
STARLINK-60 3.1 05:13:00 11° NW 05:16:17 76° NNE 05:19:39 10° ESE
BREEZE-M DEB (TANK) 3.8 05:16:07 10° W 05:18:27 24° SSW 05:21:00 10° SSE
Cosmos 2360 Rocket 3.7 05:18:25 10° WNW 05:22:02 17° W 05:25:38 10° SW
NOSS 0 Rocket 4.0 05:15:58 10° NNW 05:22:16 88° WSW 05:28:31 10° SSE
Cosmos 1400 Rocket 4.3 05:20:30 10° NW 05:23:16 18° W 05:26:00 10° SW
ATLAS 2AS CENTAUR R/B 4.4 05:22:01 10° W 05:24:32 12° W 05:27:00 10° WSW
Abrixas rocket 2.7 05:21:42 10° WNW 05:24:34 39° N 05:27:27 10° ENE
ADEOS Rocket 3.7 05:17:35 10° SSE 05:25:17 81° ENE 05:32:31 10° NNW
STARLINK 1040 3.4 05:25:41 10° SW 05:28:16 50° SE 05:30:54 10° ENE
Cosmos 2237 Rocket 2.5 05:23:52 10° NNW 05:29:34 74° ENE 05:35:13 10° SSE
Lacrosse 5 3.4 05:26:09 10° NW 05:30:17 24° NNE 05:34:25 10° ENE
COSMOS 2428 3.2 05:26:00 10° NW 05:31:24 44° WSW 05:36:46 10° S
